• In Deutschland
  • Länderverzeichnis
  • Für 7 Tage
  • Wassertemperatur
  • Satellitenkarten
  • Wetterkarte
  • Widgets
  • user-avatar
    Anmelden

    Stündliche Wetter Badenweiler

    Heute, 12 Dezember, Dienstag

    Zeit Temperatur Niederschläge Wind Luftdruck Luftfeuchtigkeit
    00:00 +1°C° 0,1 mm 5 m/S 698 mmHg 85%
    01:00 +1°C° 0,1 mm 5 m/S 699 mmHg 85%
    02:00 +1°C° 0 mm 6 m/S 700 mmHg 85%
    03:00 -1°C° 0 mm 6 m/S 701 mmHg 84%
    04:00 -2°C° 0 mm 6 m/S 702 mmHg 83%
    05:00 -1°C° 0 mm 5 m/S 704 mmHg 84%
    06:00 -2°C° 0 mm 5 m/S 705 mmHg 84%
    07:00 -2°C° 0 mm 4 m/S 707 mmHg 85%
    08:00 -2°C° 0 mm 4 m/S 708 mmHg 85%
    09:00 -1°C° 0 mm 3 m/S 709 mmHg 84%
    10:00 0°C° 0 mm 3 m/S 710 mmHg 84%
    11:00 0°C° 0 mm 3 m/S 711 mmHg 83%
    12:00 +1°C° 0 mm 3 m/S 712 mmHg 81%
    13:00 +1°C° 0 mm 3 m/S 712 mmHg 80%
    14:00 +1°C° 0 mm 3 m/S 713 mmHg 81%
    15:00 +1°C° 0 mm 2 m/S 713 mmHg 82%
    16:00 +1°C° 0 mm 2 m/S 714 mmHg 83%
    17:00 -1°C° 0 mm 2 m/S 714 mmHg 86%
    18:00 -2°C° 0 mm 2 m/S 715 mmHg 88%
    19:00 -2°C° 0 mm 2 m/S 715 mmHg 91%
    20:00 -3°C° 0 mm 2 m/S 716 mmHg 91%
    21:00 -3°C° 0 mm 2 m/S 717 mmHg 91%
    22:00 -3°C° 0 mm 2 m/S 717 mmHg 91%
    23:00 -3°C° 0 mm 2 m/S 718 mmHg 90%

    Morgen, 13 Dezember, Mittwoch

    Zeit Temperatur Niederschläge Wind Luftdruck Luftfeuchtigkeit
    00:00 -3°C° 0 mm 2 m/S 718 mmHg 89%
    01:00 -3°C° 0 mm 2 m/S 718 mmHg 89%
    02:00 -3°C° 0 mm 2 m/S 718 mmHg 88%
    03:00 -4°C° 0 mm 2 m/S 718 mmHg 87%
    04:00 -4°C° 0 mm 2 m/S 718 mmHg 86%
    05:00 -4°C° 0 mm 2 m/S 717 mmHg 84%
    06:00 -4°C° 0 mm 2 m/S 717 mmHg 83%
    07:00 -5°C° 0 mm 3 m/S 717 mmHg 81%
    08:00 -4°C° 0 mm 3 m/S 717 mmHg 77%
    09:00 -2°C° 0 mm 3 m/S 716 mmHg 73%
    10:00 -2°C° 0 mm 4 m/S 716 mmHg 70%
    11:00 -1°C° 0 mm 4 m/S 715 mmHg 67%
    12:00 0°C° 0 mm 4 m/S 714 mmHg 64%
    13:00 +2°C° 0 mm 5 m/S 713 mmHg 61%
    14:00 +1°C° 0,2 mm 4 m/S 712 mmHg 64%
    15:00 +1°C° 0,2 mm 4 m/S 712 mmHg 67%
    16:00 +1°C° 0,2 mm 4 m/S 711 mmHg 70%
    17:00 +1°C° 0,4 mm 4 m/S 711 mmHg 73%
    18:00 +1°C° 0,4 mm 5 m/S 711 mmHg 76%
    19:00 +1°C° 0,4 mm 5 m/S 711 mmHg 79%
    20:00 +2°C° 0,2 mm 5 m/S 710 mmHg 80%
    21:00 +2°C° 0,2 mm 5 m/S 710 mmHg 81%
    22:00 +2°C° 0,2 mm 5 m/S 709 mmHg 82%
    23:00 +2°C° 0,4 mm 5 m/S 708 mmHg 83%

    übermorgen, 14 Dezember, Donnerstag

    Zeit Temperatur Niederschläge Wind Luftdruck Luftfeuchtigkeit
    00:00 +3°C° 0,4 mm 5 m/S 708 mmHg 85%
    01:00 +3°C° 0,4 mm 5 m/S 707 mmHg 86%
    02:00 +3°C° 0,3 mm 6 m/S 707 mmHg 86%
    03:00 +3°C° 0,3 mm 6 m/S 707 mmHg 87%
    04:00 +4°C° 0,3 mm 6 m/S 707 mmHg 87%
    05:00 +3°C° 0,3 mm 6 m/S 708 mmHg 87%
    06:00 +2°C° 0,3 mm 5 m/S 708 mmHg 87%
    07:00 +2°C° 0,3 mm 5 m/S 708 mmHg 86%
    08:00 +2°C° 0,1 mm 5 m/S 708 mmHg 86%
    09:00 +3°C° 0,1 mm 4 m/S 709 mmHg 86%
    10:00 +3°C° 0,1 mm 4 m/S 709 mmHg 85%
    11:00 +2°C° 0,1 mm 5 m/S 708 mmHg 81%
    12:00 +3°C° 0,1 mm 5 m/S 708 mmHg 78%
    13:00 +3°C° 0,1 mm 6 m/S 707 mmHg 74%
    14:00 +3°C° 0,4 mm 6 m/S 706 mmHg 76%
    15:00 +3°C° 0,4 mm 6 m/S 705 mmHg 78%
    16:00 +2°C° 0,4 mm 5 m/S 704 mmHg 80%
    17:00 +2°C° 1,4 mm 6 m/S 703 mmHg 81%
    18:00 +3°C° 1,4 mm 6 m/S 703 mmHg 82%
    19:00 +3°C° 1,4 mm 7 m/S 702 mmHg 83%
    20:00 +2°C° 2,2 mm 7 m/S 703 mmHg 83%
    21:00 +2°C° 2,2 mm 7 m/S 703 mmHg 82%
    22:00 0°C° 2,2 mm 7 m/S 703 mmHg 82%
    23:00 +1°C° 0,2 mm 6 m/S 704 mmHg 82%

    15 Dezember, Freitag

    Zeit Temperatur Niederschläge Wind Luftdruck Luftfeuchtigkeit
    00:00 0°C° 0,2 mm 5 m/S 704 mmHg 83%
    01:00 0°C° 0,2 mm 4 m/S 704 mmHg 84%
    02:00 0°C° 0,1 mm 4 m/S 704 mmHg 85%
    03:00 0°C° 0,1 mm 4 m/S 704 mmHg 86%
    04:00 0°C° 0,1 mm 3 m/S 704 mmHg 87%
    05:00 -1°C° 0,1 mm 4 m/S 705 mmHg 87%
    06:00 -1°C° 0,1 mm 4 m/S 705 mmHg 87%
    07:00 -1°C° 0,1 mm 4 m/S 705 mmHg 87%
    08:00 -1°C° 0 mm 4 m/S 705 mmHg 85%
    09:00 0°C° 0 mm 5 m/S 705 mmHg 82%
    10:00 0°C° 0 mm 5 m/S 705 mmHg 80%
    11:00 0°C° 0,2 mm 5 m/S 704 mmHg 79%
    12:00 +1°C° 0,2 mm 6 m/S 704 mmHg 77%
    13:00 +1°C° 0,2 mm 6 m/S 704 mmHg 76%
    14:00 +1°C° 0,2 mm 5 m/S 704 mmHg 78%
    15:00 +1°C° 0,2 mm 5 m/S 703 mmHg 80%
    16:00 0°C° 0,2 mm 5 m/S 703 mmHg 82%
    17:00 0°C° 0,6 mm 5 m/S 704 mmHg 84%
    18:00 0°C° 0,6 mm 5 m/S 704 mmHg 85%
    19:00 0°C° 0,6 mm 5 m/S 705 mmHg 86%
    20:00 0°C° 0,4 mm 5 m/S 706 mmHg 87%
    21:00 -1°C° 0,4 mm 4 m/S 706 mmHg 89%
    22:00 -1°C° 0,4 mm 4 m/S 707 mmHg 90%
    23:00 0°C° 0,1 mm 3 m/S 708 mmHg 90%

    16 Dezember, Samstag

    Zeit Temperatur Niederschläge Wind Luftdruck Luftfeuchtigkeit
    00:00 -1°C° 0,1 mm 3 m/S 708 mmHg 91%
    01:00 -1°C° 0,1 mm 3 m/S 709 mmHg 92%
    02:00 -1°C° 0,1 mm 3 m/S 709 mmHg 92%
    03:00 -1°C° 0,1 mm 3 m/S 710 mmHg 91%
    04:00 -2°C° 0,1 mm 3 m/S 710 mmHg 91%
    05:00 -2°C° 0,1 mm 3 m/S 710 mmHg 91%
    06:00 -2°C° 0,1 mm 3 m/S 711 mmHg 90%
    07:00 -2°C° 0,1 mm 3 m/S 711 mmHg 89%
    08:00 -2°C° 0,2 mm 3 m/S 712 mmHg 88%
    09:00 -2°C° 0,2 mm 4 m/S 712 mmHg 86%
    10:00 -2°C° 0,2 mm 4 m/S 712 mmHg 85%
    11:00 -1°C° 0,1 mm 4 m/S 712 mmHg 84%
    12:00 -1°C° 0,1 mm 4 m/S 712 mmHg 82%
    13:00 0°C° 0,1 mm 4 m/S 713 mmHg 81%
    14:00 -1°C° 0,1 mm 4 m/S 713 mmHg 83%
    15:00 0°C° 0,1 mm 3 m/S 713 mmHg 84%
    16:00 0°C° 0,1 mm 3 m/S 713 mmHg 85%
    17:00 -1°C° 0,1 mm 2 m/S 713 mmHg 87%
    18:00 -2°C° 0,1 mm 2 m/S 714 mmHg 89%
    19:00 -2°C° 0,1 mm 2 m/S 714 mmHg 91%
    20:00 -2°C° 0,1 mm 2 m/S 714 mmHg 91%
    21:00 -2°C° 0,1 mm 2 m/S 715 mmHg 91%
    22:00 0°C° 0,1 mm 1 m/S 715 mmHg 92%
    23:00 0°C° 0,1 mm 1 m/S 715 mmHg 92%

    17 Dezember, Sonntag

    Zeit Temperatur Niederschläge Wind Luftdruck Luftfeuchtigkeit
    00:00 0°C° 0,1 mm 1 m/S 715 mmHg 93%
    01:00 -1°C° 0,1 mm 1 m/S 715 mmHg 93%
    02:00 -1°C° 0,1 mm 1 m/S 716 mmHg 94%
    03:00 -1°C° 0,1 mm 1 m/S 716 mmHg 94%
    04:00 -1°C° 0,1 mm 1 m/S 716 mmHg 94%
    05:00 -1°C° 0,1 mm 1 m/S 717 mmHg 94%
    06:00 -1°C° 0,1 mm 1 m/S 717 mmHg 94%
    07:00 -1°C° 0,1 mm 1 m/S 717 mmHg 94%
    08:00 -1°C° 0 mm 1 m/S 718 mmHg 92%
    09:00 -1°C° 0 mm 1 m/S 718 mmHg 90%
    10:00 0°C° 0 mm 1 m/S 719 mmHg 89%
    11:00 0°C° 0 mm 1 m/S 719 mmHg 85%
    12:00 -1°C° 0 mm 2 m/S 719 mmHg 82%
    13:00 -1°C° 0 mm 2 m/S 719 mmHg 78%
    14:00 -1°C° 0 mm 2 m/S 719 mmHg 80%
    15:00 -2°C° 0 mm 2 m/S 719 mmHg 83%
    16:00 -2°C° 0 mm 2 m/S 720 mmHg 85%
    17:00 -3°C° 0 mm 2 m/S 720 mmHg 86%
    18:00 -4°C° 0 mm 2 m/S 720 mmHg 88%
    19:00 -5°C° 0 mm 2 m/S 720 mmHg 90%
    20:00 -5°C° 0 mm 2 m/S 720 mmHg 89%
    21:00 -5°C° 0 mm 2 m/S 721 mmHg 88%
    22:00 -5°C° 0 mm 2 m/S 721 mmHg 87%
    23:00 -5°C° 0 mm 2 m/S 720 mmHg 85%
    Mehr zeigen